M I D A S
Marine Information and Data Acquisition System
Tripno 557 of the Zeeleeuw from 2003-08-27 06:17:15 to 2003-08-27 12:06:54
Back to CruiseResearch ActivitiesStationsMapUnderway DataData graphs

EquipmentUnitsComments
TimeDGPSUTC
LatitudeDGPSDM.mWGS84
LongitudeDGPSDM.mWGS84
SpeedMeteo Stationm/sRelative wind speed
DirectionMeteo StationdegRelative wind direction
TemperatureMeteo Stationdeg CelciusAir temperature
PressureMeteo StationPaAtmospheric pressure
HumidityMeteo Station%Relative humidity
Missing or incorrect values are displayed as -999
Metereological data collected by the RV Zeeleeuw from 2003-08-27 06:17:15 to 2003-08-27 12:06:54
                                                                                    Next 1000 lines
Time Latitude Longitude Speed Direction Temperature Pressure Humidity
2003-08-27 06:17:23 51°13.6 2°56.11 3.7 245 17.9 101510 66
2003-08-27 06:17:29 51°13.6 2°56.11 3.1 242 17.9 101520 66
2003-08-27 06:17:33 51°13.6 2°56.11 3.8 228 17.9 101520 66
2003-08-27 06:17:37 51°13.6 2°56.11 3.8 257 17.9 101510 66
2003-08-27 06:17:41 51°13.6 2°56.11 3.4 237 17.9 101510 66
2003-08-27 06:17:49 51°13.6 2°56.11 3.7 239 17.9 101510 66
2003-08-27 06:17:53 51°13.6 2°56.11 4 243 17.9 101510 66
2003-08-27 06:17:59 51°13.6 2°56.11 3.2 254 17.9 101510 66
2003-08-27 06:18:03 51°13.6 2°56.11 3.6 246 17.9 101510 66
2003-08-27 06:18:09 51°13.6 2°56.11 3.3 243 17.9 101520 66
2003-08-27 06:18:13 51°13.6 2°56.11 3.6 259 17.9 101520 66
2003-08-27 06:18:17 51°13.6 2°56.11 3.3 255 17.9 101510 66
2003-08-27 06:18:21 51°13.6 2°56.11 3.7 236 17.9 101510 66
2003-08-27 06:18:29 51°13.6 2°56.11 2.7 242 17.9 101520 66
2003-08-27 06:18:33 51°13.6 2°56.11 2.7 245 17.9 101520 66
2003-08-27 06:18:39 51°13.6 2°56.11 3.1 255 17.9 101510 66
2003-08-27 06:18:45 51°13.6 2°56.11 3.2 254 17.9 101510 66
2003-08-27 06:18:49 51°13.59 2°56.11 2.7 256 17.9 101520 66
2003-08-27 06:18:53 51°13.59 2°56.11 2 250 17.9 101520 66
2003-08-27 06:19:01 51°13.59 2°56.11 2.5 235 17.9 101510 66
2003-08-27 06:19:07 51°13.6 2°56.11 1.9 232 17.9 101510 66
2003-08-27 06:19:11 51°13.6 2°56.11 1.7 259 17.9 101510 66
2003-08-27 06:19:17 51°13.6 2°56.11 3.3 272 17.9 101510 66
2003-08-27 06:19:21 51°13.59 2°56.11 2.1 257 17.9 101510 67
2003-08-27 06:19:27 51°13.59 2°56.11 3.5 258 17.9 101510 67
2003-08-27 06:19:29 51°13.59 2°56.11 3.3 231 18 101510 67
2003-08-27 06:19:37 51°13.59 2°56.11 2.2 244 18 101510 67
2003-08-27 06:19:41 51°13.59 2°56.11 1.8 253 18 101510 67
2003-08-27 06:19:45 51°13.59 2°56.11 2.1 257 18 101510 67
2003-08-27 06:19:49 51°13.6 2°56.11 2.3 245 18 101510 67
2003-08-27 06:19:57 51°13.6 2°56.11 2.8 283 18 101510 67
2003-08-27 06:20:01 51°13.6 2°56.11 2.8 273 18 101510 67
2003-08-27 06:20:07 51°13.6 2°56.11 2.5 253 18 101510 67
2003-08-27 06:20:09 51°13.6 2°56.11 2.6 249 18 101510 67
2003-08-27 06:20:17 51°13.6 2°56.11 2 251 18 101510 67
2003-08-27 06:20:21 51°13.6 2°56.11 2.2 230 18 101510 67
2003-08-27 06:20:25 51°13.6 2°56.11 2.6 263 18 101510 67
2003-08-27 06:20:31 51°13.6 2°56.11 3.4 262 18 101510 67
2003-08-27 06:20:37 51°13.6 2°56.11 2.8 247 18 101510 67
2003-08-27 06:20:41 51°13.6 2°56.11 2.3 245 18 101510 67
2003-08-27 06:20:47 51°13.6 2°56.11 1.9 249 18 101510 67
2003-08-27 06:20:51 51°13.6 2°56.11 2.8 241 18 101510 67
2003-08-27 06:20:57 51°13.6 2°56.11 2.6 258 18 101510 67
2003-08-27 06:21:01 51°13.6 2°56.11 2.5 243 18 101510 67
2003-08-27 06:21:05 51°13.6 2°56.11 3.6 239 18 101510 67
2003-08-27 06:21:11 51°13.6 2°56.11 3.6 235 18 101510 67
2003-08-27 06:21:17 51°13.6 2°56.11 2.4 257 18 101510 67
2003-08-27 06:21:21 51°13.6 2°56.11 3.5 241 18 101510 67
2003-08-27 06:21:27 51°13.6 2°56.11 3.3 249 18 101510 67
2003-08-27 06:21:31 51°13.6 2°56.11 2.5 260 18 101510 67
2003-08-27 06:21:37 51°13.6 2°56.11 2.8 255 18 101510 67
2003-08-27 06:21:41 51°13.6 2°56.11 2.7 230 18 101510 67
2003-08-27 06:21:45 51°13.6 2°56.11 1.9 236 18 101510 67
2003-08-27 06:21:49 51°13.6 2°56.11 2.1 238 18 101510 67
2003-08-27 06:21:57 51°13.6 2°56.11 2 232 18 101510 67
2003-08-27 06:22:01 51°13.6 2°56.11 1.6 244 18 101510 67
2003-08-27 06:22:07 51°13.6 2°56.11 2.4 243 18 101510 67
2003-08-27 06:22:09 51°13.6 2°56.11 2.4 233 18 101510 67
2003-08-27 06:22:17 51°13.6 2°56.11 3 247 18 101510 67
2003-08-27 06:22:21 51°13.6 2°56.11 3.5 246 18 101510 67
2003-08-27 06:22:27 51°13.6 2°56.11 3.8 225 18 101510 67
2003-08-27 06:22:29 51°13.6 2°56.11 2.5 249 18 101510 67
2003-08-27 06:22:37 51°13.6 2°56.11 2.6 209 18 101510 67
2003-08-27 06:22:41 51°13.6 2°56.11 2.5 217 18 101510 67
2003-08-27 06:22:47 51°13.6 2°56.11 2.2 248 18 101510 67
2003-08-27 06:22:49 51°13.6 2°56.11 3.5 238 18 101510 67
2003-08-27 06:22:57 51°13.6 2°56.11 4.4 226 18 101510 67
2003-08-27 06:23:01 51°13.6 2°56.11 5 235 18 101510 67
2003-08-27 06:23:07 51°13.6 2°56.11 3.5 215 18 101510 67
2003-08-27 06:23:09 51°13.6 2°56.11 4.6 223 18 101510 67
2003-08-27 06:23:17 51°13.6 2°56.11 4.8 257 18 101510 67
2003-08-27 06:23:21 51°13.6 2°56.11 3.9 264 18 101510 67
2003-08-27 06:23:27 51°13.6 2°56.11 3.5 240 18 101510 67
2003-08-27 06:23:29 51°13.6 2°56.11 3 256 18 101510 67
2003-08-27 06:23:37 51°13.6 2°56.11 3.3 245 18 101510 67
2003-08-27 06:23:41 51°13.6 2°56.11 3.1 234 18 101510 67
2003-08-27 06:23:47 51°13.6 2°56.11 3.3 249 18 101510 67
2003-08-27 06:23:49 51°13.6 2°56.11 3.9 251 18 101510 67
2003-08-27 06:23:57 51°13.6 2°56.11 4 251 18 101510 67
2003-08-27 06:24:01 51°13.6 2°56.11 3.3 238 18 101510 67
2003-08-27 06:24:05 51°13.6 2°56.11 3 266 18 101510 67
2003-08-27 06:24:11 51°13.6 2°56.11 2.9 254 18 101510 67
2003-08-27 06:24:17 51°13.6 2°56.11 2.6 252 18 101510 67
2003-08-27 06:24:21 51°13.6 2°56.11 5.9 265 18 101510 67
2003-08-27 06:24:25 51°13.6 2°56.11 4.2 252 18 101510 67
2003-08-27 06:24:31 51°13.6 2°56.11 3.9 239 18 101520 67
2003-08-27 06:24:37 51°13.6 2°56.11 3.3 251 18 101520 67
2003-08-27 06:24:39 51°13.6 2°56.11 6.2 261 18 101520 67
2003-08-27 06:24:49 51°13.6 2°56.11 4.1 259 18 101510 67
2003-08-27 06:24:53 51°13.6 2°56.11 8 272 18 101510 67
2003-08-27 06:24:57 51°13.6 2°56.11 4.6 245 18 101510 67
2003-08-27 06:25:05 51°13.6 2°56.11 3.6 258 18 101510 67
2003-08-27 06:25:09 51°13.6 2°56.11 5.3 259 17.9 101520 67
2003-08-27 06:25:13 51°13.6 2°56.11 5.7 249 17.9 101520 67
2003-08-27 06:25:19 51°13.6 2°56.11 3.6 257 17.9 101520 67
2003-08-27 06:25:25 51°13.6 2°56.1 3.9 232 17.9 101520 67
2003-08-27 06:25:29 51°13.6 2°56.1 4 249 17.9 101520 67
2003-08-27 06:25:35 51°13.6 2°56.09 3.7 236 17.9 101520 67
2003-08-27 06:25:41 51°13.6 2°56.09 2.8 217 17.9 101510 67
2003-08-27 06:25:45 51°13.6 2°56.08 4.1 234 17.9 101510 67
2003-08-27 06:25:51 51°13.61 2°56.07 4.2 240 17.9 101510 67
2003-08-27 06:25:55 51°13.61 2°56.07 4.5 238 17.9 101510 67
2003-08-27 06:26:01 51°13.61 2°56.06 4.3 240 18 101510 67
2003-08-27 06:26:05 51°13.61 2°56.05 4.8 222 18 101510 67
2003-08-27 06:26:11 51°13.61 2°56.04 6.5 232 18 101520 67
2003-08-27 06:26:15 51°13.62 2°56.03 5.1 232 18 101520 67
2003-08-27 06:26:21 51°13.62 2°56.02 6.3 230 18 101510 68
2003-08-27 06:26:25 51°13.62 2°56.01 5 234 18 101510 68
2003-08-27 06:26:31 51°13.62 2°56 3.9 215 18 101520 67
2003-08-27 06:26:35 51°13.63 2°55.99 6 233 18 101520 67
2003-08-27 06:26:41 51°13.63 2°55.98 5.4 219 18 101520 67
2003-08-27 06:26:45 51°13.63 2°55.97 7 207 18 101520 67
2003-08-27 06:26:51 51°13.63 2°55.96 6 223 18 101520 67
2003-08-27 06:26:55 51°13.63 2°55.95 6.4 214 18 101520 67
2003-08-27 06:27:01 51°13.64 2°55.94 6.9 202 18 101520 67
2003-08-27 06:27:05 51°13.64 2°55.93 6 203 18 101520 67
2003-08-27 06:27:11 51°13.64 2°55.92 6.6 212 18 101520 67
2003-08-27 06:27:15 51°13.64 2°55.91 8 220 18 101520 67
2003-08-27 06:27:21 51°13.65 2°55.89 7.8 222 18 101510 67
2003-08-27 06:27:25 51°13.65 2°55.88 5 203 18 101510 67
2003-08-27 06:27:31 51°13.66 2°55.87 7.3 213 18 101520 68
2003-08-27 06:27:35 51°13.66 2°55.86 6.7 220 18 101520 68
2003-08-27 06:27:41 51°13.66 2°55.85 6.1 203 18 101520 67
2003-08-27 06:27:45 51°13.67 2°55.85 5.1 209 18 101520 67
2003-08-27 06:27:51 51°13.67 2°55.84 4.2 208 18 101520 67
2003-08-27 06:27:55 51°13.68 2°55.83 5.9 214 18 101520 67
2003-08-27 06:27:59 51°13.68 2°55.83 4.5 226 18 101510 67
2003-08-27 06:28:05 51°13.68 2°55.82 6.2 226 18 101510 67
2003-08-27 06:28:13 51°13.68 2°55.82 6.4 239 18 101510 67
2003-08-27 06:28:19 51°13.68 2°55.82 3.1 258 18 101510 67
2003-08-27 06:28:23 51°13.68 2°55.82 2.8 258 18 101510 67
2003-08-27 06:28:29 51°13.68 2°55.82 2.7 231 18 101510 67
2003-08-27 06:28:33 51°13.68 2°55.82 3.9 256 18 101510 67
2003-08-27 06:28:39 51°13.68 2°55.82 4.4 238 18 101520 68
2003-08-27 06:28:43 51°13.68 2°55.81 3.5 256 18 101520 68
2003-08-27 06:28:49 51°13.68 2°55.81 3.8 261 18 101510 68
2003-08-27 06:28:53 51°13.68 2°55.81 3.7 255 18 101510 68
2003-08-27 06:28:57 51°13.68 2°55.81 3.1 236 18 101510 68
2003-08-27 06:29:03 51°13.68 2°55.8 3 253 18 101510 68
2003-08-27 06:29:13 51°13.68 2°55.8 3.9 244 18 101510 68
2003-08-27 06:29:19 51°13.68 2°55.79 5 259 18 101510 68
2003-08-27 06:29:25 51°13.68 2°55.79 4.7 261 18 101510 68
2003-08-27 06:29:29 51°13.68 2°55.78 4.1 252 18 101510 69
2003-08-27 06:29:35 51°13.68 2°55.78 5 263 18 101510 69
2003-08-27 06:29:39 51°13.68 2°55.77 4.7 256 18 101510 69
2003-08-27 06:29:45 51°13.68 2°55.77 5.6 260 18 101510 69
2003-08-27 06:29:49 51°13.68 2°55.76 6.1 260 18 101510 69
2003-08-27 06:29:55 51°13.68 2°55.76 6.4 265 18 101510 69
2003-08-27 06:29:59 51°13.68 2°55.76 7 279 18 101510 68
2003-08-27 06:30:05 51°13.68 2°55.76 6.5 269 18 101510 68
2003-08-27 06:30:09 51°13.68 2°55.76 6.6 277 18 101510 67
2003-08-27 06:30:13 51°13.68 2°55.76 6 290 18 101510 67
2003-08-27 06:30:17 51°13.68 2°55.75 5.5 292 18 101510 67
2003-08-27 06:30:23 51°13.68 2°55.75 5.2 295 18 101510 67
2003-08-27 06:30:29 51°13.68 2°55.76 5.9 306 17.9 101500 68
2003-08-27 06:30:33 51°13.68 2°55.76 5.2 311 17.9 101500 68
2003-08-27 06:30:37 51°13.68 2°55.76 5.2 312 18 101510 68
2003-08-27 06:30:41 51°13.68 2°55.76 5 42 18 101510 68
2003-08-27 06:30:49 51°13.69 2°55.76 5.8 294 18 101510 67
2003-08-27 06:30:53 51°13.69 2°55.76 6.5 42 18 101510 67
2003-08-27 06:30:57 51°13.69 2°55.76 6.8 43 18 101500 67
2003-08-27 06:31:05 51°13.69 2°55.76 6 339 18 101500 67
2003-08-27 06:31:09 51°13.69 2°55.77 4.5 323 18 101500 68
2003-08-27 06:31:13 51°13.69 2°55.77 5.7 330 18 101500 68
2003-08-27 06:31:17 51°13.7 2°55.77 5.1 338 18 101510 68
2003-08-27 06:31:21 51°13.7 2°55.77 5.7 354 18 101510 68
2003-08-27 06:31:29 51°13.7 2°55.77 7.3 359 18 101500 67
2003-08-27 06:31:33 51°13.71 2°55.77 8 3 18 101500 67
2003-08-27 06:31:43 51°13.71 2°55.77 8.5 20 18 101500 67
2003-08-27 06:31:49 51°13.72 2°55.76 7 25 18 101500 67
2003-08-27 06:31:53 51°13.72 2°55.76 7.7 22 18 101500 67
2003-08-27 06:31:57 51°13.73 2°55.76 7.2 27 18 101500 67
2003-08-27 06:32:03 51°13.73 2°55.75 6.3 37 18 101500 67
2003-08-27 06:32:07 51°13.73 2°55.75 6.3 26 18 101500 66
2003-08-27 06:32:13 51°13.74 2°55.74 6.5 33 18 101500 66
2003-08-27 06:32:17 51°13.74 2°55.74 8 42 18 101500 66
2003-08-27 06:32:21 51°13.75 2°55.73 5.5 30 18 101500 67
2003-08-27 06:32:29 51°13.76 2°55.72 4.9 29 18 101500 67
2003-08-27 06:32:33 51°13.76 2°55.71 9 25 18 101500 67
2003-08-27 06:32:37 51°13.77 2°55.7 7.9 24 18 101500 67
2003-08-27 06:32:43 51°13.77 2°55.69 9.8 20 18 101500 67
2003-08-27 06:32:45 51°13.78 2°55.69 7 21 18 101500 67
2003-08-27 06:32:53 51°13.79 2°55.67 9.6 23 18 101500 67
2003-08-27 06:32:57 51°13.8 2°55.66 8.5 31 18 101500 67
2003-08-27 06:33:03 51°13.81 2°55.65 9.9 23 18 101500 66
2003-08-27 06:33:09 51°13.82 2°55.64 9.6 23 18 101500 66
2003-08-27 06:33:13 51°13.83 2°55.63 9.2 23 18 101500 66
2003-08-27 06:33:21 51°13.84 2°55.62 9.1 20 18 101500 66
2003-08-27 06:33:33 51°13.87 2°55.6 8.8 21 18 101500 66
2003-08-27 06:33:37 51°13.88 2°55.6 9.1 20 17.9 101490 66
2003-08-27 06:33:45 51°13.89 2°55.58 10.2 13 17.9 101490 66
2003-08-27 06:33:49 51°13.9 2°55.58 10.2 19 18 101490 67
2003-08-27 06:33:53 51°13.91 2°55.57 9.4 12 18 101490 67
2003-08-27 06:33:57 51°13.91 2°55.57 10.7 15 18 101490 68
2003-08-27 06:34:01 51°13.92 2°55.56 9.5 12 18 101490 68
2003-08-27 06:34:09 51°13.94 2°55.55 9.6 18 18.1 101500 69
2003-08-27 06:34:11 51°13.94 2°55.55 8.7 18 18.1 101500 69
2003-08-27 06:34:19 51°13.95 2°55.54 8.7 10 18 101490 67
2003-08-27 06:34:21 51°13.96 2°55.54 8.9 20 18 101490 67
2003-08-27 06:34:29 51°13.97 2°55.53 8.7 13 18 101490 66
2003-08-27 06:34:33 51°13.98 2°55.52 7.8 19 18 101490 66
2003-08-27 06:34:39 51°13.99 2°55.51 8.5 17 18 101490 66
2003-08-27 06:34:41 51°14 2°55.51 8.7 17 18 101490 66
2003-08-27 06:34:49 51°14.01 2°55.5 9.4 24 18 101500 67
2003-08-27 06:34:53 51°14.02 2°55.49 8.3 19 18 101500 67
2003-08-27 06:34:59 51°14.03 2°55.49 8.6 22 18 101490 67
2003-08-27 06:35:03 51°14.04 2°55.48 8.1 23 18 101490 67
2003-08-27 06:35:09 51°14.05 2°55.47 8 16 18 101490 67
2003-08-27 06:35:13 51°14.06 2°55.47 9.9 11 18 101490 67
2003-08-27 06:35:19 51°14.07 2°55.46 10.6 19 18 101490 67
2003-08-27 06:35:23 51°14.08 2°55.45 9 19 18 101490 67
2003-08-27 06:35:29 51°14.09 2°55.44 9 15 18 101500 68
2003-08-27 06:35:33 51°14.1 2°55.44 8.3 18 18 101500 68
2003-08-27 06:35:37 51°14.1 2°55.43 8.3 13 18 101490 68
2003-08-27 06:35:45 51°14.12 2°55.42 8.7 14 18 101490 68
2003-08-27 06:35:49 51°14.13 2°55.42 10.2 13 18 101490 67
2003-08-27 06:35:53 51°14.13 2°55.41 8.7 15 18 101490 67
2003-08-27 06:36:03 51°14.15 2°55.4 9.5 14 18 101490 67
2003-08-27 06:36:07 51°14.16 2°55.39 8 18 18 101500 67
2003-08-27 06:36:13 51°14.17 2°55.38 8 11 18 101500 67
2003-08-27 06:36:17 51°14.18 2°55.37 7.4 26 18 101500 66
2003-08-27 06:36:23 51°14.19 2°55.36 8.6 20 18 101500 66
2003-08-27 06:36:27 51°14.2 2°55.35 7.4 27 17.9 101490 65
2003-08-27 06:36:33 51°14.21 2°55.34 9.1 20 17.9 101490 65
2003-08-27 06:36:37 51°14.22 2°55.33 8.6 22 17.9 101500 65
2003-08-27 06:36:43 51°14.23 2°55.32 6.5 8 17.9 101500 65
2003-08-27 06:36:45 51°14.23 2°55.31 8.8 24 17.9 101500 65
2003-08-27 06:36:53 51°14.25 2°55.29 8.6 23 17.9 101500 65
2003-08-27 06:36:57 51°14.26 2°55.28 8.1 20 17.9 101490 66
2003-08-27 06:37:01 51°14.26 2°55.27 8.1 28 17.9 101490 66
2003-08-27 06:37:17 51°14.29 2°55.22 9 26 18 101500 67
2003-08-27 06:37:23 51°14.31 2°55.21 9 22 18 101500 67
2003-08-27 06:37:25 51°14.31 2°55.2 9.6 34 18 101500 67
2003-08-27 06:37:33 51°14.32 2°55.18 8.5 30 18 101500 68
2003-08-27 06:37:37 51°14.33 2°55.16 9.6 27 18 101500 68
2003-08-27 06:37:43 51°14.34 2°55.14 9.6 34 18 101500 68
2003-08-27 06:37:49 51°14.35 2°55.12 10.3 38 18 101500 68
2003-08-27 06:37:53 51°14.36 2°55.11 9.9 38 18 101500 66
2003-08-27 06:37:57 51°14.36 2°55.09 9.9 40 18 101500 66
2003-08-27 06:38:03 51°14.37 2°55.07 11.8 44 18 101500 65
2003-08-27 06:38:07 51°14.38 2°55.06 11.5 41 18 101500 65
2003-08-27 06:38:13 51°14.39 2°55.04 11.3 29 17.9 101500 65
2003-08-27 06:38:17 51°14.39 2°55.03 10.4 38 17.9 101490 64
2003-08-27 06:38:23 51°14.4 2°55 11.5 38 17.9 101490 64
2003-08-27 06:38:25 51°14.41 2°55 10.8 36 17.9 101490 64
2003-08-27 06:38:33 51°14.42 2°54.97 10.8 34 17.9 101500 64
2003-08-27 06:38:43 51°14.44 2°54.93 11.7 28 17.9 101500 64
2003-08-27 06:38:47 51°14.44 2°54.92 11.4 31 18 101480 65
2003-08-27 06:38:53 51°14.45 2°54.9 11.9 23 18 101480 65
2003-08-27 06:38:57 51°14.46 2°54.89 12 22 18 101480 66
2003-08-27 06:39:03 51°14.47 2°54.87 12 21 18 101480 66
2003-08-27 06:39:07 51°14.48 2°54.85 11.9 20 18 101480 65
2003-08-27 06:39:13 51°14.49 2°54.84 11.7 19 18 101480 65
2003-08-27 06:39:17 51°14.5 2°54.82 12.4 18 18 101480 64
2003-08-27 06:39:23 51°14.51 2°54.8 12.3 20 18 101480 64
2003-08-27 06:39:27 51°14.52 2°54.79 12.1 22 18 101480 64
2003-08-27 06:39:33 51°14.53 2°54.77 12.6 20 18 101480 62
2003-08-27 06:39:37 51°14.54 2°54.76 11.9 21 18 101480 62
2003-08-27 06:39:41 51°14.55 2°54.75 11.5 18 17.9 101480 62
2003-08-27 06:39:49 51°14.57 2°54.72 12.3 21 17.9 101480 62
2003-08-27 06:39:53 51°14.58 2°54.71 12 25 17.9 101490 62
2003-08-27 06:39:57 51°14.59 2°54.7 11.8 27 17.9 101490 62
2003-08-27 06:40:03 51°14.6 2°54.68 12.1 26 17.9 101490 62
2003-08-27 06:40:07 51°14.61 2°54.67 12.5 24 17.9 101490 62
2003-08-27 06:40:13 51°14.63 2°54.65 12.5 24 17.9 101490 62
2003-08-27 06:40:17 51°14.64 2°54.64 11.6 24 17.9 101490 62
2003-08-27 06:40:21 51°14.65 2°54.63 11.6 22 18 101490 61
2003-08-27 06:40:29 51°14.67 2°54.6 11.6 21 18 101490 61
2003-08-27 06:40:33 51°14.68 2°54.59 11.3 20 18 101480 62
2003-08-27 06:40:37 51°14.69 2°54.58 11.5 18 18 101470 61
2003-08-27 06:40:43 51°14.71 2°54.57 12.9 14 18 101470 61
2003-08-27 06:40:45 51°14.71 2°54.56 13.1 13 18 101480 61
2003-08-27 06:40:53 51°14.74 2°54.54 12.7 10 18 101480 61
2003-08-27 06:40:57 51°14.75 2°54.53 12.5 10 18 101480 61
2003-08-27 06:41:03 51°14.77 2°54.52 12.5 11 18 101480 63
2003-08-27 06:41:09 51°14.78 2°54.51 12.2 13 18 101490 62
2003-08-27 06:41:13 51°14.8 2°54.51 11.9 11 18 101490 62
2003-08-27 06:41:17 51°14.81 2°54.5 11.9 7 18 101490 62
2003-08-27 06:41:23 51°14.83 2°54.49 11.4 11 18 101490 62
2003-08-27 06:41:25 51°14.83 2°54.49 11.7 15 18 101490 62
2003-08-27 06:41:33 51°14.85 2°54.47 12.7 14 18 101490 62
2003-08-27 06:41:37 51°14.87 2°54.46 13 11 18 101490 62
2003-08-27 06:41:43 51°14.88 2°54.45 12.3 14 18 101490 62
2003-08-27 06:41:45 51°14.89 2°54.44 12.3 19 18 101490 63
2003-08-27 06:41:53 51°14.91 2°54.42 12.1 17 18 101490 63
2003-08-27 06:41:57 51°14.92 2°54.41 12.8 18 18 101490 63
2003-08-27 06:42:01 51°14.93 2°54.4 12.3 17 18 101480 64
2003-08-27 06:42:13 51°14.97 2°54.37 12.9 16 18 101480 62
2003-08-27 06:42:17 51°14.98 2°54.36 13.4 15 18 101500 63
2003-08-27 06:42:23 51°14.99 2°54.35 13.3 17 18 101500 63
2003-08-27 06:42:25 51°15 2°54.34 12.5 19 18 101500 63
2003-08-27 06:42:33 51°15.02 2°54.32 13.2 18 18 101490 63
2003-08-27 06:42:37 51°15.03 2°54.31 12.2 17 18 101480 63
2003-08-27 06:42:43 51°15.05 2°54.3 12.3 15 18 101480 63
2003-08-27 06:42:45 51°15.06 2°54.29 13.5 14 18 101480 63
2003-08-27 06:42:53 51°15.08 2°54.27 13 13 18 101480 62
2003-08-27 06:42:57 51°15.09 2°54.26 13.4 14 18 101490 63
2003-08-27 06:43:03 51°15.11 2°54.25 12.8 12 18 101490 63
2003-08-27 06:43:07 51°15.12 2°54.24 13.1 17 18 101490 63
2003-08-27 06:43:13 51°15.14 2°54.22 12.5 18 18 101490 63
2003-08-27 06:43:17 51°15.15 2°54.21 12.6 18 18 101490 63
2003-08-27 06:43:23 51°15.16 2°54.19 12.4 19 18 101500 62
2003-08-27 06:43:29 51°15.18 2°54.18 12.3 17 18 101500 62
2003-08-27 06:43:33 51°15.19 2°54.17 12.4 16 18 101490 63
2003-08-27 06:43:43 51°15.22 2°54.14 13.2 17 18 101490 63
2003-08-27 06:43:47 51°15.24 2°54.13 12.7 14 18 101490 65
2003-08-27 06:43:53 51°15.25 2°54.11 13.1 17 18 101490 65
2003-08-27 06:43:57 51°15.26 2°54.1 12.7 13 18 101490 64
2003-08-27 06:44:03 51°15.28 2°54.09 12.6 13 18 101490 64
2003-08-27 06:44:07 51°15.29 2°54.08 11.6 7 18 101490 65
2003-08-27 06:44:13 51°15.31 2°54.06 11.7 12 18 101490 65
2003-08-27 06:44:17 51°15.32 2°54.05 11.5 13 18 101490 65
2003-08-27 06:44:25 51°15.35 2°54.03 12.4 14 18 101470 64
2003-08-27 06:44:29 51°15.36 2°54.02 12.2 13 18.1 101490 66
2003-08-27 06:44:33 51°15.37 2°54.01 11.8 14 18.1 101490 66
2003-08-27 06:44:41 51°15.39 2°53.98 12 11 18.1 101500 67
2003-08-27 06:44:45 51°15.4 2°53.97 12 16 18.1 101500 67
2003-08-27 06:44:49 51°15.42 2°53.96 12.5 14 18.1 101490 66
2003-08-27 06:44:57 51°15.44 2°53.94 11.9 16 18.1 101490 66
2003-08-27 06:45:01 51°15.45 2°53.93 11.5 22 18.1 101490 64
2003-08-27 06:45:05 51°15.46 2°53.92 12.1 17 18.1 101490 64
2003-08-27 06:45:09 51°15.47 2°53.91 12.4 15 18 101500 64
2003-08-27 06:45:13 51°15.49 2°53.9 12.5 20 18 101500 64
2003-08-27 06:45:21 51°15.51 2°53.88 14.6 16 18 101480 65
2003-08-27 06:45:25 51°15.52 2°53.86 13.8 19 18 101480 65
2003-08-27 06:45:31 51°15.54 2°53.85 13.4 16 18 101490 65
2003-08-27 06:45:33 51°15.54 2°53.84 13.7 18 18 101490 65
2003-08-27 06:45:41 51°15.57 2°53.82 13.7 17 18 101490 66
2003-08-27 06:45:45 51°15.58 2°53.81 13.9 19 18 101490 66
2003-08-27 06:45:51 51°15.6 2°53.79 12.7 16 18 101470 64
2003-08-27 06:45:55 51°15.61 2°53.78 12.9 14 18 101470 64
2003-08-27 06:46:01 51°15.62 2°53.76 12.5 15 18 101480 63
2003-08-27 06:46:05 51°15.64 2°53.75 12.4 13 18 101480 63
2003-08-27 06:46:11 51°15.65 2°53.73 12.8 12 18 101470 63
2003-08-27 06:46:15 51°15.67 2°53.72 13.8 15 18 101470 63
2003-08-27 06:46:25 51°15.69 2°53.69 12.7 20 18 101490 63
2003-08-27 06:46:31 51°15.71 2°53.68 12.4 18 18 101480 63
2003-08-27 06:46:37 51°15.73 2°53.66 11 19 18 101480 63
2003-08-27 06:46:41 51°15.74 2°53.65 11.7 17 17.9 101500 62
2003-08-27 06:46:45 51°15.75 2°53.64 11.6 16 17.9 101500 62
2003-08-27 06:46:51 51°15.77 2°53.62 11.9 15 17.9 101480 63
2003-08-27 06:46:53 51°15.77 2°53.62 12.4 13 17.9 101480 63
2003-08-27 06:47:01 51°15.8 2°53.59 13.8 14 17.9 101480 64
2003-08-27 06:47:05 51°15.81 2°53.58 14 22 17.9 101480 64
2003-08-27 06:47:09 51°15.82 2°53.57 14.4 21 18 101480 64
2003-08-27 06:47:15 51°15.84 2°53.56 13.2 17 18 101480 64
2003-08-27 06:47:21 51°15.86 2°53.54 13.7 15 18 101490 64
2003-08-27 06:47:25 51°15.87 2°53.53 13.4 17 18 101490 64
2003-08-27 06:47:31 51°15.88 2°53.51 12.9 15 18 101480 66
2003-08-27 06:47:33 51°15.89 2°53.5 13 17 18 101480 66
2003-08-27 06:47:41 51°15.91 2°53.48 14.2 14 18.1 101470 66
2003-08-27 06:47:45 51°15.92 2°53.47 12.8 16 18.1 101470 66
2003-08-27 06:47:49 51°15.94 2°53.46 12.7 17 18 101490 63
2003-08-27 06:47:53 51°15.95 2°53.45 13.8 16 18 101490 63
2003-08-27 06:48:01 51°15.97 2°53.43 14 18 18 101480 62
2003-08-27 06:48:05 51°15.98 2°53.42 14.7 19 18 101480 62
2003-08-27 06:48:09 51°15.99 2°53.4 13.8 12 18 101480 64
2003-08-27 06:48:15 51°16.01 2°53.39 14.3 16 18 101480 64
2003-08-27 06:48:25 51°16.04 2°53.36 13.4 13 18 101480 64
2003-08-27 06:48:31 51°16.06 2°53.34 12.7 12 18 101490 64
2003-08-27 06:48:35 51°16.07 2°53.33 12.9 10 18 101490 64
2003-08-27 06:48:41 51°16.08 2°53.31 12.1 13 18 101470 63
2003-08-27 06:48:45 51°16.1 2°53.3 12.8 11 18 101470 63
2003-08-27 06:48:49 51°16.11 2°53.29 12.3 13 17.9 101480 62
2003-08-27 06:48:57 51°16.13 2°53.27 11.8 13 17.9 101480 62
2003-08-27 06:49:01 51°16.14 2°53.26 12 16 17.9 101500 62
2003-08-27 06:49:05 51°16.15 2°53.25 13.2 16 17.9 101500 62
2003-08-27 06:49:11 51°16.17 2°53.23 12.2 20 17.9 101480 61
2003-08-27 06:49:13 51°16.18 2°53.22 12.3 16 17.9 101480 61
2003-08-27 06:49:21 51°16.2 2°53.2 12.4 12 17.9 101480 63
2003-08-27 06:49:25 51°16.21 2°53.19 13.2 17 17.9 101480 63
2003-08-27 06:49:33 51°16.23 2°53.16 14 15 17.9 101480 63
2003-08-27 06:49:37 51°16.25 2°53.15 13.8 19 17.9 101480 63
2003-08-27 06:49:41 51°16.26 2°53.14 13 18 17.9 101480 63
2003-08-27 06:49:49 51°16.28 2°53.12 12.6 19 17.9 101490 63
2003-08-27 06:49:53 51°16.29 2°53.11 13.8 18 17.9 101490 63
2003-08-27 06:49:57 51°16.31 2°53.1 13.7 17 17.9 101490 62
2003-08-27 06:50:03 51°16.32 2°53.08 13.4 19 17.9 101490 62
2003-08-27 06:50:09 51°16.34 2°53.06 14 18 17.9 101480 63
2003-08-27 06:50:13 51°16.35 2°53.05 13.4 19 17.9 101480 63
2003-08-27 06:50:25 51°16.39 2°53.01 12.8 14 17.9 101480 63
2003-08-27 06:50:29 51°16.4 2°53 11.8 14 17.9 101480 63
2003-08-27 06:50:33 51°16.41 2°52.99 13.3 9 17.9 101480 63
2003-08-27 06:50:39 51°16.43 2°52.98 13.4 14 17.9 101480 61
2003-08-27 06:50:45 51°16.45 2°52.96 14.3 13 17.9 101480 61
2003-08-27 06:50:49 51°16.46 2°52.95 13.9 12 17.9 101490 62
2003-08-27 06:50:53 51°16.47 2°52.94 13 11 17.9 101490 62
2003-08-27 06:51:01 51°16.5 2°52.92 13.1 13 18 101500 64
2003-08-27 06:51:05 51°16.51 2°52.91 13.5 15 18 101500 64
2003-08-27 06:51:09 51°16.52 2°52.9 13.6 14 18 101490 63
2003-08-27 06:51:13 51°16.54 2°52.89 12.7 13 18 101490 63
2003-08-27 06:51:17 51°16.55 2°52.88 12.7 13 17.9 101490 62
2003-08-27 06:51:25 51°16.57 2°52.85 12.9 15 17.9 101490 62
2003-08-27 06:51:29 51°16.58 2°52.84 11.8 17 17.9 101490 61
2003-08-27 06:51:33 51°16.6 2°52.83 12.5 15 17.9 101490 61
2003-08-27 06:51:37 51°16.61 2°52.82 13.2 18 17.9 101490 62
2003-08-27 06:51:45 51°16.63 2°52.8 14.1 17 17.9 101490 62
2003-08-27 06:51:49 51°16.64 2°52.79 14 14 17.9 101500 63
2003-08-27 06:51:53 51°16.66 2°52.78 13.6 18 17.9 101500 63
2003-08-27 06:51:59 51°16.67 2°52.76 13.6 15 17.9 101490 65
2003-08-27 06:52:05 51°16.69 2°52.75 14 16 17.9 101490 65
2003-08-27 06:52:09 51°16.7 2°52.74 13.7 16 18 101500 64
2003-08-27 06:52:15 51°16.72 2°52.72 13.4 18 18 101500 64
2003-08-27 06:52:21 51°16.74 2°52.71 12.6 16 18 101480 65
2003-08-27 06:52:25 51°16.75 2°52.7 12.6 17 18 101480 65
2003-08-27 06:52:29 51°16.76 2°52.68 12.9 11 18 101490 64
2003-08-27 06:52:33 51°16.78 2°52.67 12.5 6 18 101490 64
2003-08-27 06:52:37 51°16.79 2°52.66 12.7 7 17.9 101490 63
2003-08-27 06:52:45 51°16.81 2°52.64 12.7 6 17.9 101490 63
2003-08-27 06:52:49 51°16.82 2°52.64 12.1 7 17.9 101490 64
2003-08-27 06:52:55 51°16.84 2°52.62 12.4 6 17.9 101490 64
2003-08-27 06:52:59 51°16.86 2°52.62 12.3 2 17.9 101500 64
2003-08-27 06:53:05 51°16.87 2°52.61 12.2 4 17.9 101500 64
2003-08-27 06:53:09 51°16.89 2°52.6 11.9 6 17.9 101500 62
2003-08-27 06:53:13 51°16.9 2°52.6 12.6 4 17.9 101500 62
2003-08-27 06:53:25 51°16.94 2°52.58 12.9 8 17.9 101500 62
2003-08-27 06:53:35 51°16.97 2°52.56 12.7 7 17.9 101500 62
2003-08-27 06:53:37 51°16.98 2°52.56 12.1 4 17.9 101510 64
2003-08-27 06:53:45 51°17 2°52.54 13.3 3 17.9 101510 64
2003-08-27 06:53:49 51°17.01 2°52.54 12.6 5 17.9 101500 64
2003-08-27 06:53:53 51°17.03 2°52.53 11.7 6 17.9 101500 64
2003-08-27 06:53:59 51°17.05 2°52.52 12.7 7 17.9 101500 63
2003-08-27 06:54:05 51°17.06 2°52.51 12.2 4 17.9 101500 63
2003-08-27 06:54:09 51°17.08 2°52.51 12.3 6 17.9 101510 63
2003-08-27 06:54:13 51°17.09 2°52.5 12.2 6 17.9 101510 63
2003-08-27 06:54:19 51°17.11 2°52.49 12.9 9 17.9 101500 65
2003-08-27 06:54:25 51°17.13 2°52.48 13.2 8 17.9 101500 65
2003-08-27 06:54:29 51°17.14 2°52.47 13.4 6 17.9 101500 64
2003-08-27 06:54:33 51°17.15 2°52.47 12.7 14 17.9 101500 64
2003-08-27 06:54:39 51°17.17 2°52.46 12.9 12 17.9 101500 64
2003-08-27 06:54:45 51°17.19 2°52.45 13.9 7 17.9 101500 64
2003-08-27 06:54:49 51°17.21 2°52.44 13.7 7 17.9 101510 65
2003-08-27 06:54:53 51°17.22 2°52.44 13.4 1 17.9 101510 65
2003-08-27 06:54:59 51°17.24 2°52.43 14.1 4 18 101500 66
2003-08-27 06:55:05 51°17.26 2°52.43 13 6 18 101500 66
2003-08-27 06:55:09 51°17.27 2°52.42 12.7 4 17.9 101510 65
2003-08-27 06:55:13 51°17.28 2°52.42 12.8 6 17.9 101510 65
2003-08-27 06:55:21 51°17.31 2°52.41 12.8 4 18 101500 66
2003-08-27 06:55:25 51°17.32 2°52.41 12.9 7 18 101500 66
2003-08-27 06:55:29 51°17.34 2°52.4 13 6 18 101490 65
2003-08-27 06:55:33 51°17.35 2°52.4 13.5 5 18 101490 65
2003-08-27 06:55:41 51°17.37 2°52.39 13.8 11 18 101490 65
2003-08-27 06:55:49 51°17.4 2°52.38 12.6 12 18 101490 65
2003-08-27 06:55:53 51°17.41 2°52.38 14.4 8 17.9 101500 63
2003-08-27 06:55:57 51°17.43 2°52.38 14.1 5 17.9 101500 64
2003-08-27 06:56:01 51°17.44 2°52.37 12.4 12 17.9 101500 64
2003-08-27 06:56:05 51°17.45 2°52.37 13 7 18 101500 64
2003-08-27 06:56:13 51°17.48 2°52.36 13.3 6 18 101500 64
2003-08-27 06:56:17 51°17.49 2°52.36 13.2 6 17.9 101490 63
2003-08-27 06:56:21 51°17.5 2°52.35 14.4 12 17.9 101490 63
2003-08-27 06:56:29 51°17.53 2°52.34 14.8 11 17.9 101490 63
2003-08-27 06:56:31 51°17.54 2°52.34 14.5 8 17.9 101500 62
2003-08-27 06:56:37 51°17.56 2°52.33 14.5 14 17.9 101500 62
2003-08-27 06:56:43 51°17.58 2°52.33 14.4 10 17.9 101510 63
2003-08-27 06:56:49 51°17.6 2°52.32 14.6 8 17.9 101500 63
2003-08-27 06:56:53 51°17.61 2°52.32 14.2 8 17.9 101500 63
2003-08-27 06:56:57 51°17.62 2°52.31 14.9 8 17.9 101490 64
2003-08-27 06:57:01 51°17.63 2°52.31 14.1 7 17.9 101490 64
2003-08-27 06:57:09 51°17.66 2°52.3 13.7 7 17.9 101490 64
2003-08-27 06:57:13 51°17.67 2°52.3 13.9 9 17.9 101490 64
2003-08-27 06:57:17 51°17.69 2°52.29 13.6 7 17.9 101500 62
2003-08-27 06:57:23 51°17.71 2°52.28 13.8 7 17.9 101500 62
2003-08-27 06:57:29 51°17.73 2°52.28 13 7 17.9 101500 62
2003-08-27 06:57:33 51°17.74 2°52.27 12.5 6 17.9 101490 61
2003-08-27 06:57:37 51°17.75 2°52.27 13.2 11 17.9 101490 61
2003-08-27 06:57:43 51°17.77 2°52.26 13.1 8 17.9 101490 61
2003-08-27 06:57:45 51°17.78 2°52.26 12.2 9 17.9 101490 61
2003-08-27 06:57:53 51°17.8 2°52.25 12.5 7 17.9 101490 61
2003-08-27 06:57:57 51°17.82 2°52.25 12.9 3 17.9 101500 61
2003-08-27 06:58:03 51°17.84 2°52.24 12.1 7 17.9 101500 61
2003-08-27 06:58:05 51°17.84 2°52.24 11.9 5 17.9 101490 61
2003-08-27 06:58:13 51°17.87 2°52.24 12 4 17.9 101490 61
2003-08-27 06:58:17 51°17.88 2°52.23 12.3 4 17.9 101490 61
2003-08-27 06:58:23 51°17.9 2°52.23 12 2 17.9 101500 62
2003-08-27 06:58:29 51°17.92 2°52.23 11.3 3 17.9 101500 62
2003-08-27 06:58:33 51°17.93 2°52.23 12.6 5 17.8 101510 61
2003-08-27 06:58:41 51°17.96 2°52.22 14.7 9 17.8 101510 61
2003-08-27 06:58:47 51°17.98 2°52.22 14.7 1 17.8 101510 61
2003-08-27 06:58:53 51°18 2°52.22 13.9 355 17.9 101500 62
2003-08-27 06:58:57 51°18.01 2°52.21 14.9 1 17.8 101490 62
2003-08-27 06:59:01 51°18.02 2°52.21 14.4 358 17.8 101490 62
2003-08-27 06:59:05 51°18.04 2°52.21 14.3 354 17.9 101490 64
2003-08-27 06:59:13 51°18.06 2°52.21 15 1 17.9 101490 64
2003-08-27 06:59:17 51°18.08 2°52.2 14.2 358 17.9 101490 64
2003-08-27 06:59:21 51°18.09 2°52.2 15.1 355 17.9 101480 64
2003-08-27 06:59:29 51°18.12 2°52.2 14.9 351 17.9 101480 64
2003-08-27 06:59:31 51°18.12 2°52.2 14.1 353 17.9 101490 64
2003-08-27 06:59:37 51°18.14 2°52.2 13.7 348 17.9 101490 63
2003-08-27 06:59:41 51°18.15 2°52.2 13.7 349 17.9 101490 63
2003-08-27 06:59:49 51°18.18 2°52.21 13.6 347 17.9 101500 64
2003-08-27 06:59:53 51°18.19 2°52.21 13.1 342 17.9 101500 64
2003-08-27 06:59:55 51°18.2 2°52.22 12.9 349 17.9 101490 64
2003-08-27 07:00:09 51°18.24 2°52.24 12.7 2 17.9 101490 63
2003-08-27 07:00:13 51°18.25 2°52.25 13.7 345 17.9 101490 63
2003-08-27 07:00:19 51°18.27 2°52.27 13.9 347 17.9 101480 64
2003-08-27 07:00:21 51°18.27 2°52.27 12.8 347 17.9 101480 64
2003-08-27 07:00:29 51°18.29 2°52.29 13 344 18 101490 66
2003-08-27 07:00:31 51°18.3 2°52.29 13.4 343 18 101490 66
2003-08-27 07:00:45 51°18.34 2°52.33 13.7 344 18 101490 66
2003-08-27 07:00:49 51°18.34 2°52.35 13.7 340 18 101490 64
2003-08-27 07:00:53 51°18.35 2°52.36 12.9 334 18 101490 64
2003-08-27 07:00:57 51°18.36 2°52.37 12.5 338 18 101490 64
2003-08-27 07:01:05 51°18.38 2°52.4 13.3 334 18 101490 64
2003-08-27 07:01:09 51°18.39 2°52.42 12.9 332 18 101490 64
2003-08-27 07:01:21 51°18.41 2°52.47 12.8 328 18 101480 63
2003-08-27 07:01:25 51°18.41 2°52.49 12.3 327 18 101480 63
2003-08-27 07:01:29 51°18.42 2°52.5 12.1 329 17.9 101490 62
2003-08-27 07:01:33 51°18.43 2°52.52 11.8 330 17.9 101490 62
2003-08-27 07:01:41 51°18.44 2°52.56 10.6 335 17.9 101490 63
2003-08-27 07:01:45 51°18.44 2°52.58 10.8 338 17.9 101490 63
2003-08-27 07:01:51 51°18.45 2°52.6 11.5 334 18 101490 63
2003-08-27 07:01:57 51°18.46 2°52.63 11.6 331 18 101490 63
2003-08-27 07:02:01 51°18.46 2°52.65 11.8 333 18 101490 64
2003-08-27 07:02:05 51°18.47 2°52.67 11.4 334 18 101490 64
2003-08-27 07:02:09 51°18.47 2°52.69 10.9 333 18 101500 63
2003-08-27 07:02:21 51°18.49 2°52.74 11 331 18 101500 63
2003-08-27 07:02:25 51°18.49 2°52.76 11.1 327 18 101500 63
2003-08-27 07:02:31 51°18.5 2°52.79 11.3 333 17.9 101500 63
2003-08-27 07:02:33 51°18.51 2°52.8 10 329 17.9 101500 63
2003-08-27 07:02:41 51°18.52 2°52.83 11.2 325 18 101500 62
2003-08-27 07:02:45 51°18.52 2°52.85 11.1 325 18 101500 62
2003-08-27 07:02:51 51°18.53 2°52.88 10.7 326 17.9 101500 63
2003-08-27 07:02:53 51°18.53 2°52.89 12.1 323 17.9 101500 63
2003-08-27 07:03:01 51°18.54 2°52.93 11.4 334 18 101500 63
2003-08-27 07:03:05 51°18.55 2°52.95 10.1 331 18 101500 63
2003-08-27 07:03:11 51°18.55 2°52.97 10.8 327 18 101500 63
2003-08-27 07:03:13 51°18.56 2°52.98 10.4 331 18 101500 63
2003-08-27 07:03:21 51°18.56 2°53.02 10.4 334 18 101490 65
2003-08-27 07:03:25 51°18.57 2°53.04 10.4 331 18 101490 65
2003-08-27 07:03:31 51°18.58 2°53.07 10.2 335 18 101490 63
2003-08-27 07:03:33 51°18.58 2°53.08 11.1 328 18 101490 63
2003-08-27 07:03:41 51°18.59 2°53.12 10.7 328 18 101500 64
2003-08-27 07:03:51 51°18.6 2°53.17 11 331 18 101500 64
2003-08-27 07:04:01 51°18.61 2°53.21 12 333 18 101500 64
2003-08-27 07:04:05 51°18.62 2°53.23 12.1 327 18 101500 64
2003-08-27 07:04:13 51°18.62 2°53.27 11.8 329 18 101500 64
2003-08-27 07:04:17 51°18.63 2°53.29 11.3 328 18 101500 63
2003-08-27 07:04:21 51°18.63 2°53.31 10.2 327 18 101500 63
2003-08-27 07:04:29 51°18.64 2°53.35 11.9 326 18 101500 63
2003-08-27 07:04:33 51°18.65 2°53.37 12.3 324 18 101500 63
2003-08-27 07:04:39 51°18.65 2°53.4 10.7 329 18 101500 63
2003-08-27 07:04:41 51°18.65 2°53.41 11.6 325 18 101500 63
2003-08-27 07:04:49 51°18.66 2°53.44 11.2 327 18 101500 64
2003-08-27 07:04:59 51°18.67 2°53.49 11.8 321 18 101500 63
2003-08-27 07:05:05 51°18.68 2°53.52 11.2 332 18 101500 63
2003-08-27 07:05:09 51°18.68 2°53.54 10.9 328 18 101490 62
2003-08-27 07:05:13 51°18.69 2°53.56 11.9 329 18 101490 62
2003-08-27 07:05:17 51°18.69 2°53.58 11.7 332 18 101490 62
2003-08-27 07:05:21 51°18.7 2°53.6 12.7 331 18 101490 62
2003-08-27 07:05:29 51°18.71 2°53.64 12 333 18 101500 63
2003-08-27 07:05:33 51°18.71 2°53.65 12 330 18 101500 63
2003-08-27 07:05:37 51°18.71 2°53.67 11.7 330 18 101490 64
2003-08-27 07:05:45 51°18.72 2°53.71 12.3 332 18 101490 64
2003-08-27 07:05:49 51°18.73 2°53.73 11.5 332 18 101490 64
2003-08-27 07:05:53 51°18.73 2°53.75 11.4 332 18 101490 64
2003-08-27 07:05:57 51°18.74 2°53.77 11.4 334 18 101490 64
2003-08-27 07:06:07 51°18.75 2°53.81 11.5 335 18 101490 64
2003-08-27 07:06:27 51°18.77 2°53.91 10.5 328 18.1 101480 64
2003-08-27 07:06:29 51°18.77 2°53.92 10.5 332 18 101490 63
2003-08-27 07:06:37 51°18.78 2°53.96 10.4 334 18 101490 63
2003-08-27 07:06:41 51°18.78 2°53.98 11.1 324 18 101490 62
2003-08-27 07:06:45 51°18.79 2°54 10.3 327 18 101490 62
2003-08-27 07:06:49 51°18.79 2°54.02 12.4 321 18 101500 62
2003-08-27 07:06:57 51°18.8 2°54.05 13.5 315 18 101500 62
2003-08-27 07:07:01 51°18.81 2°54.07 11.6 334 18 101500 63
2003-08-27 07:07:07 51°18.81 2°54.1 10.6 331 18 101500 63
2003-08-27 07:07:11 51°18.82 2°54.12 10.7 327 18 101500 64
2003-08-27 07:07:21 51°18.83 2°54.17 12.2 321 18 101500 64
2003-08-27 07:07:27 51°18.84 2°54.2 11.1 323 18 101500 64
2003-08-27 07:07:31 51°18.84 2°54.22 13 326 18 101490 66
2003-08-27 07:07:37 51°18.85 2°54.24 12 327 18 101490 66
2003-08-27 07:07:41 51°18.85 2°54.26 12.8 325 18 101500 65
2003-08-27 07:07:45 51°18.86 2°54.28 11.8 326 18 101500 65
2003-08-27 07:07:49 51°18.86 2°54.3 12.1 325 18 101490 65
2003-08-27 07:07:57 51°18.87 2°54.34 12.4 328 18 101490 65
2003-08-27 07:08:01 51°18.87 2°54.36 11.1 329 18 101490 63
2003-08-27 07:08:07 51°18.88 2°54.39 11.9 325 18 101490 63
2003-08-27 07:08:09 51°18.88 2°54.4 11 325 18 101490 63
2003-08-27 07:08:17 51°18.89 2°54.44 11.1 324 18 101490 63
2003-08-27 07:08:21 51°18.9 2°54.46 11.5 323 18 101500 63
2003-08-27 07:08:25 51°18.9 2°54.47 10.4 328 18 101500 63
2003-08-27 07:08:29 51°18.9 2°54.49 10.4 324 18 101490 63
2003-08-27 07:08:41 51°18.92 2°54.55 11 323 18 101490 62
2003-08-27 07:08:45 51°18.92 2°54.57 11 327 18 101490 62
2003-08-27 07:08:49 51°18.93 2°54.59 11.3 325 18 101500 63
2003-08-27 07:08:53 51°18.93 2°54.61 12.1 321 18 101500 63
2003-08-27 07:09:01 51°18.94 2°54.65 12.3 322 18 101500 62
2003-08-27 07:09:05 51°18.94 2°54.67 11.7 321 18 101500 62
2003-08-27 07:09:09 51°18.95 2°54.69 11.2 323 18 101490 63
2003-08-27 07:09:15 51°18.96 2°54.72 11.3 332 18 101490 63
2003-08-27 07:09:21 51°18.96 2°54.74 11.7 321 18 101490 64
2003-08-27 07:09:25 51°18.97 2°54.76 11.9 331 18 101490 64
2003-08-27 07:09:29 51°18.97 2°54.78 11 328 18 101490 63
2003-08-27 07:09:41 51°18.99 2°54.84 11.2 333 18 101490 63
2003-08-27 07:09:45 51°18.99 2°54.86 11.7 326 18 101490 63
2003-08-27 07:09:51 51°19 2°54.89 11.3 330 18 101490 64
2003-08-27 07:09:55 51°19 2°54.91 10.9 333 18 101490 64
2003-08-27 07:10:01 51°19.01 2°54.94 11.4 331 18 101500 64
2003-08-27 07:10:05 51°19.01 2°54.96 10 325 18 101500 64
2003-08-27 07:10:09 51°19.02 2°54.98 10.9 324 18 101500 63
2003-08-27 07:10:21 51°19.03 2°55.03 11.5 323 18 101500 64
2003-08-27 07:10:25 51°19.04 2°55.05 11 330 18 101500 64
2003-08-27 07:10:29 51°19.04 2°55.07 13.1 327 18 101490 63
2003-08-27 07:10:35 51°19.05 2°55.1 11.1 329 18 101490 63
2003-08-27 07:10:41 51°19.06 2°55.13 11.8 327 18 101500 64
2003-08-27 07:10:45 51°19.06 2°55.15 11.3 328 18 101500 64
2003-08-27 07:10:49 51°19.07 2°55.17 12.1 329 18 101490 65
2003-08-27 07:10:57 51°19.08 2°55.21 11.3 323 18 101490 65
2003-08-27 07:11:01 51°19.08 2°55.23 11 325 18 101490 64
2003-08-27 07:11:09 51°19.09 2°55.27 10.6 327 18 101500 64
2003-08-27 07:11:13 51°19.1 2°55.29 11.5 324 18 101500 64
2003-08-27 07:11:17 51°19.1 2°55.31 10.4 332 18 101490 64
2003-08-27 07:11:25 51°19.11 2°55.35 11.4 329 18 101490 64
2003-08-27 07:11:29 51°19.11 2°55.37 11.7 330 18 101500 65
2003-08-27 07:11:35 51°19.12 2°55.4 10.3 329 18 101500 65
2003-08-27 07:11:39 51°19.13 2°55.42 11.1 327 18 101500 65
2003-08-27 07:11:45 51°19.13 2°55.45 10.4 326 18 101500 65
2003-08-27 07:11:49 51°19.14 2°55.47 11 327 18 101500 64
2003-08-27 07:11:53 51°19.14 2°55.49 11.9 321 18 101500 64
2003-08-27 07:11:59 51°19.15 2°55.52 12.9 320 18 101500 64
2003-08-27 07:12:05 51°19.16 2°55.55 12.5 326 18 101500 64
2003-08-27 07:12:09 51°19.16 2°55.57 12 325 18 101490 64
2003-08-27 07:12:13 51°19.17 2°55.59 12.2 326 18 101490 64
2003-08-27 07:12:17 51°19.17 2°55.61 13.2 323 18 101490 65
2003-08-27 07:12:25 51°19.18 2°55.65 11.4 324 18 101490 65
2003-08-27 07:12:29 51°19.19 2°55.67 11.4 321 18 101490 64
2003-08-27 07:12:33 51°19.19 2°55.69 12.1 316 18 101490 64
2003-08-27 07:12:39 51°19.2 2°55.71 12.1 318 18 101490 63
2003-08-27 07:12:45 51°19.21 2°55.74 11.5 318 18 101490 63
2003-08-27 07:12:49 51°19.21 2°55.76 12.2 317 18 101490 63
2003-08-27 07:12:55 51°19.22 2°55.79 11.3 319 18 101490 63
2003-08-27 07:12:59 51°19.22 2°55.81 11 322 18 101490 63
2003-08-27 07:13:05 51°19.23 2°55.84 10.4 38 18 101490 63
2003-08-27 07:13:09 51°19.23 2°55.86 9.7 327 18 101490 63
2003-08-27 07:13:13 51°19.24 2°55.88 10.8 325 18 101490 63
2003-08-27 07:13:19 51°19.24 2°55.91 12.6 321 18 101500 63
2003-08-27 07:13:25 51°19.25 2°55.94 11.2 318 18 101500 63
2003-08-27 07:13:29 51°19.25 2°55.96 10.9 319 18 101500 65
2003-08-27 07:13:33 51°19.26 2°55.98 10.3 325 18 101500 65
2003-08-27 07:13:37 51°19.26 2°56 10.7 41 18 101490 65
2003-08-27 07:13:45 51°19.27 2°56.04 10.7 319 18 101490 65
2003-08-27 07:13:49 51°19.27 2°56.06 12 318 18 101490 64
2003-08-27 07:13:53 51°19.28 2°56.08 11.6 324 18 101490 64
2003-08-27 07:13:57 51°19.28 2°56.1 10.5 35 18 101490 64
2003-08-27 07:14:05 51°19.29 2°56.14 11.2 325 18 101490 64
2003-08-27 07:14:09 51°19.3 2°56.16 10.6 325 18 101500 65
2003-08-27 07:14:21 51°19.31 2°56.23 11.7 327 18 101500 65
2003-08-27 07:14:27 51°19.32 2°56.25 11.7 322 18 101500 65
2003-08-27 07:14:30 51°19.32 2°56.27 13.3 327 18 101480 67
2003-08-27 07:14:42 51°19.33 2°56.33 13.8 326 18 101480 66
2003-08-27 07:14:46 51°19.34 2°56.35 11.9 328 18 101480 66
2003-08-27 07:14:50 51°19.34 2°56.37 12.7 321 18 101490 66
2003-08-27 07:15:02 51°19.35 2°56.43 11.6 322 18 101480 64
2003-08-27 07:15:06 51°19.36 2°56.45 11.4 325 18 101480 64
2003-08-27 07:15:10 51°19.36 2°56.47 11.4 329 18 101470 65
2003-08-27 07:15:18 51°19.37 2°56.51 13 323 18 101480 63
2003-08-27 07:15:22 51°19.37 2°56.53 12.7 328 18 101480 63
2003-08-27 07:15:30 51°19.38 2°56.57 12 328 18 101490 63
2003-08-27 07:15:34 51°19.39 2°56.59 12.4 327 18 101490 63
2003-08-27 07:15:42 51°19.4 2°56.63 12.2 325 18 101490 63
2003-08-27 07:15:48 51°19.4 2°56.66 11.6 322 18 101480 64
2003-08-27 07:15:54 51°19.41 2°56.69 11.7 320 18 101480 64
2003-08-27 07:15:58 51°19.41 2°56.71 11.9 321 18 101470 63
2003-08-27 07:16:02 51°19.42 2°56.73 11.7 326 18 101470 63
2003-08-27 07:16:06 51°19.42 2°56.75 10.9 328 18 101480 64
2003-08-27 07:16:14 51°19.43 2°56.79 11.6 322 18 101480 64
2003-08-27 07:16:18 51°19.44 2°56.81 10.8 327 18 101480 64
2003-08-27 07:16:30 51°19.45 2°56.87 11.7 326 18 101490 64
2003-08-27 07:16:34 51°19.46 2°56.89 10.7 326 18 101490 64
2003-08-27 07:16:40 51°19.46 2°56.92 10.7 321 18 101490 64
2003-08-27 07:16:44 51°19.47 2°56.94 9.8 324 18 101490 64
2003-08-27 07:16:50 51°19.47 2°56.97 10.7 328 18 101490 63
2003-08-27 07:17:02 51°19.49 2°57.03 11.8 321 18 101490 65
2003-08-27 07:17:06 51°19.49 2°57.05 13.4 322 18 101490 65
2003-08-27 07:17:12 51°19.5 2°57.08 13 321 18 101500 67
2003-08-27 07:17:18 51°19.51 2°57.11 12.8 318 18 101500 67
2003-08-27 07:17:22 51°19.51 2°57.12 12.6 319 18 101490 66
2003-08-27 07:17:26 51°19.52 2°57.14 11.6 322 18 101490 66
2003-08-27 07:17:36 51°19.53 2°57.19 12.1 322 18 101490 65
2003-08-27 07:17:42 51°19.54 2°57.22 12.8 321 18 101480 64
2003-08-27 07:17:46 51°19.54 2°57.24 13.2 317 18 101480 64
2003-08-27 07:17:50 51°19.55 2°57.26 12.4 325 18 101480 65
2003-08-27 07:17:54 51°19.55 2°57.28 12.6 322 18 101480 65
2003-08-27 07:18:00 51°19.56 2°57.31 12.6 322 18 101480 65
2003-08-27 07:18:04 51°19.56 2°57.33 11 320 18 101480 65
2003-08-27 07:18:14 51°19.58 2°57.37 11.6 320 18 101480 65
2003-08-27 07:18:18 51°19.58 2°57.39 11.4 326 18 101480 64
2003-08-27 07:18:26 51°19.59 2°57.43 11 41 18 101480 64
2003-08-27 07:18:32 51°19.6 2°57.46 11.9 316 18 101480 64
2003-08-27 07:18:36 51°19.6 2°57.48 11.3 315 18 101480 64
2003-08-27 07:18:42 51°19.61 2°57.51 10.4 43 18 101480 65
2003-08-27 07:18:46 51°19.62 2°57.53 10.3 318 18 101480 65
2003-08-27 07:18:50 51°19.62 2°57.55 12.4 321 18 101480 65
2003-08-27 07:18:58 51°19.63 2°57.58 10.1 324 18 101490 65
2003-08-27 07:19:06 51°19.64 2°57.62 11 328 18 101490 65
2003-08-27 07:19:12 51°19.65 2°57.65 12.1 328 18 101490 66
2003-08-27 07:19:18 51°19.65 2°57.68 12.2 332 18 101490 66
2003-08-27 07:19:22 51°19.66 2°57.7 12.3 331 18 101490 67
2003-08-27 07:19:26 51°19.66 2°57.72 13.4 333 18 101490 67
2003-08-27 07:19:30 51°19.67 2°57.74 12 329 18.1 101480 67
2003-08-27 07:19:40 51°19.68 2°57.79 12 330 18.1 101490 66
2003-08-27 07:19:46 51°19.69 2°57.81 13.1 325 18.1 101490 66
2003-08-27 07:19:50 51°19.69 2°57.83 12.1 326 18 101480 65
2003-08-27 07:19:58 51°19.7 2°57.87 11.7 322 18 101480 65
2003-08-27 07:20:06 51°19.71 2°57.91 10.9 326 18 101480 65
2003-08-27 07:20:10 51°19.72 2°57.93 10.9 326 18 101480 65
2003-08-27 07:20:22 51°19.73 2°57.98 11.2 327 18 101480 64
2003-08-27 07:20:26 51°19.73 2°58 10.3 323 18 101480 64
2003-08-27 07:20:32 51°19.74 2°58.03 10.5 330 18 101490 64
2003-08-27 07:20:42 51°19.75 2°58.08 10.3 332 18 101490 64
2003-08-27 07:20:46 51°19.76 2°58.1 12.2 326 18 101490 64
2003-08-27 07:20:50 51°19.76 2°58.12 11.4 322 18 101490 65
2003-08-27 07:20:58 51°19.77 2°58.16 10.6 323 18 101480 65
2003-08-27 07:21:02 51°19.78 2°58.18 10.6 323 18 101480 65
2003-08-27 07:21:06 51°19.78 2°58.19 11.5 325 18 101480 65
2003-08-27 07:21:10 51°19.79 2°58.21 11.6 325 18 101490 65
2003-08-27 07:21:18 51°19.8 2°58.25 12.3 327 18 101490 65
2003-08-27 07:21:22 51°19.8 2°58.27 12.5 333 18 101480 65
2003-08-27 07:21:26 51°19.81 2°58.29 12.3 336 18 101480 65
2003-08-27 07:21:34 51°19.82 2°58.33 13.2 335 18 101490 66
2003-08-27 07:21:38 51°19.82 2°58.35 13.9 335 18 101490 66
2003-08-27 07:21:42 51°19.83 2°58.37 12.3 335 18 101490 67
2003-08-27 07:21:48 51°19.83 2°58.39 13.5 330 18 101490 67
2003-08-27 07:22:02 51°19.85 2°58.46 11.4 326 18 101480 65
2003-08-27 07:22:06 51°19.85 2°58.48 11.7 330 18 101480 65
2003-08-27 07:22:10 51°19.86 2°58.5 12.5 332 18 101490 65
2003-08-27 07:22:22 51°19.87 2°58.56 11.8 329 18 101490 65
2003-08-27 07:22:26 51°19.88 2°58.57 12.5 336 18 101490 65
2003-08-27 07:22:30 51°19.88 2°58.59 13.8 334 18 101480 66
2003-08-27 07:22:38 51°19.89 2°58.63 12.4 334 18 101490 66
2003-08-27 07:22:46 51°19.9 2°58.67 14.2 333 18 101490 66
2003-08-27 07:22:50 51°19.91 2°58.69 15 331 18 101490 66
2003-08-27 07:22:52 51°19.91 2°58.7 14.2 330 18 101490 66
2003-08-27 07:23:02 51°19.92 2°58.74 12.5 332 18 101490 66
2003-08-27 07:23:08 51°19.93 2°58.77 13.6 329 18 101490 66
2003-08-27 07:23:10 51°19.93 2°58.78 13.3 331 18 101480 66
2003-08-27 07:23:22 51°19.95 2°58.84 12 326 18 101480 65
2003-08-27 07:23:26 51°19.95 2°58.86 13.1 324 18 101480 65
2003-08-27 07:23:32 51°19.96 2°58.88 11.5 331 18 101490 66
2003-08-27 07:23:38 51°19.96 2°58.91 11.8 329 18 101490 66
2003-08-27 07:23:42 51°19.97 2°58.93 11.9 332 18 101480 66
2003-08-27 07:23:46 51°19.97 2°58.95 12.5 331 18 101480 66
2003-08-27 07:23:50 51°19.98 2°58.97 12.5 331 17.9 101480 65
2003-08-27 07:24:02 51°19.99 2°59.03 13.9 334 18 101490 66
2003-08-27 07:24:06 51°20 2°59.05 13.3 339 18 101490 66
2003-08-27 07:24:12 51°20 2°59.07 13.9 341 18 101480 66
2003-08-27 07:24:18 51°20.01 2°59.1 13.1 334 18 101480 66
2003-08-27 07:24:26 51°20.02 2°59.14 12.8 341 18 101490 67
2003-08-27 07:24:30 51°20.02 2°59.16 13.3 339 18 101490 67
2003-08-27 07:24:42 51°20.04 2°59.22 13.8 337 18 101480 67
2003-08-27 07:24:46 51°20.04 2°59.23 13.3 338 18 101480 67
2003-08-27 07:24:52 51°20.05 2°59.26 13.5 338 18 101480 67
2003-08-27 07:24:54 51°20.05 2°59.27 12.5 338 18 101480 67
2003-08-27 07:25:02 51°20.06 2°59.31 13 340 18 101490 66
2003-08-27 07:25:06 51°20.07 2°59.33 13 332 18 101490 66
2003-08-27 07:25:10 51°20.07 2°59.35 13.5 334 17.9 101490 65
2003-08-27 07:25:18 51°20.08 2°59.38 12.9 331 17.9 101490 66
2003-08-27 07:25:22 51°20.09 2°59.4 12.8 328 17.9 101490 66
2003-08-27 07:25:30 51°20.09 2°59.44 12.9 329 17.9 101490 66
2003-08-27 07:25:34 51°20.1 2°59.46 12.5 331 17.9 101490 66
2003-08-27 07:25:40 51°20.11 2°59.49 13 328 17.9 101490 65
2003-08-27 07:25:44 51°20.11 2°59.51 12.3 327 17.9 101490 65
2003-08-27 07:25:50 51°20.12 2°59.53 12.1 327 17.9 101480 65
2003-08-27 07:25:58 51°20.13 2°59.57 12.4 337 17.9 101480 66
2003-08-27 07:26:06 51°20.14 2°59.61 12.1 339 17.9 101480 66
2003-08-27 07:26:16 51°20.15 2°59.66 12.2 332 17.9 101490 66
2003-08-27 07:26:18 51°20.15 2°59.67 11.2 331 17.9 101480 66
2003-08-27 07:26:24 51°20.16 2°59.69 11.1 337 17.9 101480 66
2003-08-27 07:26:34 51°20.17 2°59.74 12.7 331 17.9 101480 66
2003-08-27 07:26:40 51°20.18 2°59.77 12.2 334 17.9 101480 66
2003-08-27 07:26:46 51°20.18 2°59.8 12.4 333 17.9 101480 66
2003-08-27 07:26:54 51°20.19 2°59.84 12.6 338 17.9 101490 67
2003-08-27 07:27:00 51°20.2 2°59.87 12.9 340 17.9 101480 67
2003-08-27 07:27:06 51°20.21 2°59.89 13 340 17.9 101480 67
2003-08-27 07:27:10 51°20.21 2°59.91 13.2 335 17.9 101490 66
2003-08-27 07:27:14 51°20.21 2°59.93 12.4 336 17.9 101490 66
2003-08-27 07:27:18 51°20.22 2°59.95 13.7 337 17.9 101490 66
2003-08-27 07:27:24 51°20.23 2°59.98 13.1 339 17.9 101490 66
2003-08-27 07:27:30 51°20.23 3°0.01 14 335 17.9 101480 65
2003-08-27 07:27:38 51°20.24 3°0.05 13.1 337 17.9 101480 66
2003-08-27 07:27:42 51°20.25 3°0.06 13.3 334 17.9 101480 66
2003-08-27 07:27:48 51°20.25 3°0.09 12.7 336 17.9 101480 66
2003-08-27 07:27:54 51°20.26 3°0.12 13.3 332 17.9 101480 66
2003-08-27 07:28:04 51°20.27 3°0.17 12.6 333 17.9 101480 66
2003-08-27 07:28:10 51°20.28 3°0.2 13.9 335 17.9 101480 65
2003-08-27 07:28:18 51°20.29 3°0.23 13.9 339 17.9 101480 64
2003-08-27 07:28:26 51°20.3 3°0.27 13.7 332 17.9 101480 64
2003-08-27 07:28:30 51°20.3 3°0.29 14.4 332 17.8 101480 65
2003-08-27 07:28:42 51°20.32 3°0.35 14.1 327 17.9 101480 66
2003-08-27 07:28:46 51°20.32 3°0.37 12.8 332 17.9 101480 66
2003-08-27 07:28:50 51°20.33 3°0.38 13 332 17.9 101470 65
2003-08-27 07:28:56 51°20.33 3°0.41 12.4 323 17.9 101470 65
2003-08-27 07:29:02 51°20.34 3°0.44 11.5 324 17.9 101480 65
2003-08-27 07:29:04 51°20.34 3°0.45 15.4 330 17.9 101480 65
2003-08-27 07:29:14 51°20.35 3°0.5 13.9 327 17.9 101480 65
2003-08-27 07:29:20 51°20.36 3°0.53 14.3 324 17.9 101480 66
2003-08-27 07:29:24 51°20.37 3°0.55 12.8 328 17.9 101480 66
2003-08-27 07:29:30 51°20.37 3°0.57 13.5 329 17.9 101480 66
2003-08-27 07:29:38 51°20.38 3°0.61 12.1 332 17.9 101470 63
2003-08-27 07:29:44 51°20.39 3°0.64 11.6 333 17.9 101470 63
2003-08-27 07:29:50 51°20.4 3°0.67 11.2 331 17.9 101470 63
2003-08-27 07:29:52 51°20.4 3°0.68 12.3 328 17.9 101470 63
2003-08-27 07:30:02 51°20.41 3°0.73 14.5 323 17.9 101470 63
2003-08-27 07:30:06 51°20.41 3°0.75 13.5 323 17.9 101470 63
2003-08-27 07:30:14 51°20.42 3°0.78 12.4 325 17.9 101480 64
2003-08-27 07:30:18 51°20.43 3°0.8 14 321 18 101480 65
2003-08-27 07:30:26 51°20.44 3°0.84 12.3 327 18 101480 65
2003-08-27 07:30:30 51°20.44 3°0.86 12.5 329 17.9 101470 64
2003-08-27 07:30:32 51°20.44 3°0.87 13.8 323 17.9 101470 64
2003-08-27 07:30:38 51°20.45 3°0.9 13.8 324 17.9 101470 63
2003-08-27 07:30:46 51°20.46 3°0.94 13.1 324 17.9 101470 63
2003-08-27 07:30:50 51°20.46 3°0.96 12.8 319 17.9 101480 64
2003-08-27 07:30:54 51°20.47 3°0.97 11.8 328 17.9 101480 64
2003-08-27 07:31:02 51°20.48 3°1.01 12 326 17.9 101480 63
2003-08-27 07:31:06 51°20.48 3°1.03 12.4 331 17.9 101480 63
2003-08-27 07:31:10 51°20.49 3°1.05 12.6 335 17.9 101470 63
2003-08-27 07:31:14 51°20.49 3°1.07 12.4 335 17.9 101470 63
2003-08-27 07:31:22 51°20.5 3°1.11 12.2 329 17.9 101480 64
2003-08-27 07:31:26 51°20.51 3°1.13 14.4 330 17.9 101480 64
2003-08-27 07:31:30 51°20.51 3°1.15 14 333 17.9 101480 65
2003-08-27 07:31:36 51°20.52 3°1.18 13.9 326 17.9 101480 65
2003-08-27 07:31:42 51°20.52 3°1.2 12.9 332 17.9 101470 65
2003-08-27 07:31:46 51°20.53 3°1.22 12.2 329 17.9 101470 65
2003-08-27 07:31:52 51°20.54 3°1.25 12.5 328 17.9 101480 63
2003-08-27 07:32:02 51°20.55 3°1.3 12.7 330 17.9 101480 63
2003-08-27 07:32:08 51°20.55 3°1.33 13 328 17.9 101480 63
2003-08-27 07:32:14 51°20.56 3°1.36 12.4 328 17.9 101470 65
2003-08-27 07:32:18 51°20.57 3°1.38 12 330 17.9 101470 65
2003-08-27 07:32:22 51°20.57 3°1.4 11.4 334 17.9 101480 65
2003-08-27 07:32:28 51°20.58 3°1.43 13.8 331 17.9 101480 65
2003-08-27 07:32:34 51°20.58 3°1.45 14.1 332 17.9 101480 62
2003-08-27 07:32:38 51°20.59 3°1.47 14.1 336 17.9 101480 62
2003-08-27 07:32:42 51°20.59 3°1.49 13.4 335 17.9 101480 62
2003-08-27 07:32:46 51°20.6 3°1.51 14.4 330 17.9 101480 62
2003-08-27 07:32:50 51°20.6 3°1.53 15.1 333 17.9 101480 64
2003-08-27 07:32:58 51°20.61 3°1.57 14 332 17.9 101480 64
2003-08-27 07:33:06 51°20.62 3°1.61 13 326 17.9 101480 64
2003-08-27 07:33:10 51°20.63 3°1.63 12.4 325 17.9 101470 62
2003-08-27 07:33:14 51°20.63 3°1.65 13.2 325 17.9 101470 62
2003-08-27 07:33:18 51°20.63 3°1.67 11.7 325 17.9 101470 62
2003-08-27 07:33:26 51°20.64 3°1.71 11.6 327 17.9 101470 62
2003-08-27 07:33:30 51°20.65 3°1.73 13 320 17.9 101460 63
2003-08-27 07:33:34 51°20.65 3°1.75 12.6 324 17.9 101460 63
2003-08-27 07:33:38 51°20.66 3°1.77 11.9 328 17.9 101470 62
2003-08-27 07:33:46 51°20.67 3°1.8 12.3 326 17.9 101470 62
2003-08-27 07:33:50 51°20.67 3°1.82 12.9 326 17.8 101470 61
2003-08-27 07:34:06 51°20.69 3°1.9 13.9 335 17.9 101480 63
2003-08-27 07:34:12 51°20.7 3°1.93 13.7 328 17.9 101480 64
2003-08-27 07:34:22 51°20.71 3°1.98 13 331 17.9 101480 64
2003-08-27 07:34:26 51°20.72 3°2 13.5 332 17.9 101480 64
2003-08-27 07:34:30 51°20.72 3°2.02 13.2 336 17.9 101470 63
2003-08-27 07:34:38 51°20.73 3°2.06 12.9 333 17.9 101470 63
2003-08-27 07:34:42 51°20.73 3°2.08 12.4 330 17.9 101470 63
2003-08-27 07:34:46 51°20.74 3°2.1 13 332 17.9 101470 63
2003-08-27 07:34:52 51°20.75 3°2.13 13.2 334 17.9 101470 63
2003-08-27 07:35:02 51°20.76 3°2.17 12.9 325 17.9 101470 63
2003-08-27 07:35:06 51°20.76 3°2.19 13.6 322 17.9 101470 63
2003-08-27 07:35:12 51°20.77 3°2.22 13.2 317 17.9 101480 63
2003-08-27 07:35:22 51°20.78 3°2.27 12.7 325 17.9 101480 63
2003-08-27 07:35:26 51°20.79 3°2.29 13.3 327 17.9 101480 63
2003-08-27 07:35:32 51°20.79 3°2.32 13.1 323 17.9 101470 63
2003-08-27 07:35:42 51°20.81 3°2.37 12 326 17.9 101470 63
2003-08-27 07:35:46 51°20.81 3°2.39 12.1 323 17.9 101470 63
2003-08-27 07:35:52 51°20.82 3°2.42 12 325 17.9 101470 63
2003-08-27 07:36:02 51°20.83 3°2.47 13.1 321 17.9 101470 63
2003-08-27 07:36:06 51°20.83 3°2.49 11.5 327 17.9 101470 63
2003-08-27 07:36:10 51°20.84 3°2.5 12.8 324 17.9 101470 63
2003-08-27 07:36:18 51°20.85 3°2.54 11.6 333 17.9 101470 63
2003-08-27 07:36:22 51°20.85 3°2.56 13.2 330 17.9 101470 62
2003-08-27 07:36:26 51°20.86 3°2.58 12 328 17.9 101470 62
2003-08-27 07:36:34 51°20.87 3°2.62 12.7 326 17.9 101470 63
2003-08-27 07:36:38 51°20.87 3°2.64 11.5 323 17.9 101470 63
2003-08-27 07:36:42 51°20.88 3°2.66 11.6 332 17.9 101460 63
2003-08-27 07:36:48 51°20.88 3°2.69 12 329 17.9 101460 63
2003-08-27 07:37:02 51°20.9 3°2.76 13.7 333 17.9 101470 64
2003-08-27 07:37:06 51°20.9 3°2.78 12.6 323 17.9 101470 64
2003-08-27 07:37:10 51°20.91 3°2.8 12.5 328 18 101470 64
2003-08-27 07:37:22 51°20.92 3°2.85 12.6 324 18 101470 64
2003-08-27 07:37:26 51°20.93 3°2.87 12.2 323 18 101470 64
2003-08-27 07:37:30 51°20.93 3°2.89 11.1 328 18 101470 64
2003-08-27 07:37:38 51°20.94 3°2.93 13 323 17.9 101460 63
2003-08-27 07:37:46 51°20.95 3°2.97 11.8 326 17.9 101460 63
2003-08-27 07:37:50 51°20.95 3°2.99 12.7 322 18 101470 63
2003-08-27 07:37:54 51°20.96 3°3.01 11.6 327 18 101470 63
2003-08-27 07:37:58 51°20.96 3°3.03 13 328 17.9 101480 63
2003-08-27 07:38:06 51°20.97 3°3.07 14 324 17.9 101480 63
2003-08-27 07:38:10 51°20.98 3°3.09 13.7 323 17.9 101470 63
2003-08-27 07:38:14 51°20.98 3°3.11 13.9 325 17.9 101470 63
2003-08-27 07:38:18 51°20.99 3°3.13 13.9 325 18 101470 64
2003-08-27 07:38:26 51°21 3°3.17 12.3 326 18 101470 64
2003-08-27 07:38:30 51°21 3°3.18 13.2 330 18 101470 63
2003-08-27 07:38:34 51°21.01 3°3.2 12.5 330 18 101470 63
2003-08-27 07:38:38 51°21.01 3°3.22 12.7 329 18 101470 63
2003-08-27 07:38:46 51°21.02 3°3.26 12.2 325 18 101470 63
2003-08-27 07:38:54 51°21.03 3°3.3 13 329 17.9 101470 63
2003-08-27 07:38:58 51°21.03 3°3.32 13.3 325 17.9 101470 63
2003-08-27 07:39:06 51°21.04 3°3.36 11.9 325 17.9 101470 63
2003-08-27 07:39:10 51°21.05 3°3.38 12.9 322 17.9 101470 62
2003-08-27 07:39:14 51°21.05 3°3.4 12 326 17.9 101470 62
2003-08-27 07:39:18 51°21.06 3°3.42 13.2 329 17.9 101480 62
2003-08-27 07:39:26 51°21.07 3°3.46 12.2 334 17.9 101480 62
2003-08-27 07:39:32 51°21.07 3°3.49 12.3 329 17.9 101470 62
2003-08-27 07:39:42 51°21.09 3°3.54 11.3 333 17.9 101470 62
2003-08-27 07:39:46 51°21.09 3°3.56 11.7 331 17.9 101470 62
2003-08-27 07:39:52 51°21.1 3°3.59 13.6 332 17.9 101470 64
2003-08-27 07:40:02 51°21.11 3°3.63 12.8 329 17.9 101470 64
2003-08-27 07:40:06 51°21.11 3°3.65 12 329 17.9 101480 61
2003-08-27 07:40:14 51°21.12 3°3.69 10.8 328 17.9 101480 61
2003-08-27 07:40:18 51°21.13 3°3.71 11 331 17.9 101480 62
2003-08-27 07:40:26 51°21.14 3°3.75 12.6 330 17.9 101480 62
2003-08-27 07:40:30 51°21.14 3°3.77 11.9 329 17.9 101480 61
2003-08-27 07:40:34 51°21.15 3°3.79 13.3 331 17.9 101480 61
2003-08-27 07:40:38 51°21.15 3°3.81 12 328 17.9 101480 61
2003-08-27 07:40:42 51°21.16 3°3.83 11.4 331 17.9 101480 61
2003-08-27 07:40:48 51°21.16 3°3.86 12.4 332 17.9 101480 61
2003-08-27 07:41:00 51°21.18 3°3.92 13.4 330 17.9 101490 61
2003-08-27 07:41:06 51°21.18 3°3.95 13.7 329 17.9 101490 61
2003-08-27 07:41:10 51°21.19 3°3.97 14.2 326 17.9 101470 62
2003-08-27 07:41:14 51°21.19 3°3.99 14.1 324 17.9 101470 62
2003-08-27 07:41:22 51°21.2 3°4.03 14.3 326 17.9 101470 62
2003-08-27 07:41:26 51°21.21 3°4.04 13.8 325 17.9 101470 62
2003-08-27 07:41:30 51°21.21 3°4.06 12.4 324 17.9 101460 62
2003-08-27 07:41:42 51°21.23 3°4.12 10.9 327 17.9 101470 62
2003-08-27 07:41:46 51°21.23 3°4.14 12.3 324 17.9 101470 62
2003-08-27 07:41:52 51°21.24 3°4.17 11.8 323 17.9 101470 61
2003-08-27 07:41:56 51°21.24 3°4.19 12.3 327 17.9 101470 61
2003-08-27 07:42:02 51°21.25 3°4.22 12.2 324 17.9 101470 60
2003-08-27 07:42:06 51°21.25 3°4.24 12.5 326 17.9 101470 60
2003-08-27 07:42:10 51°21.26 3°4.26 12.7 319 17.9 101480 62
2003-08-27 07:42:16 51°21.26 3°4.29 12.9 326 17.9 101480 62
2003-08-27 07:42:22 51°21.27 3°4.32 12.9 328 17.9 101480 61
2003-08-27 07:42:26 51°21.28 3°4.34 13.7 325 17.9 101480 61
2003-08-27 07:42:30 51°21.28 3°4.36 11.8 336 17.9 101480 61
2003-08-27 07:42:46 51°21.3 3°4.43 12.9 327 17.9 101480 61
2003-08-27 07:42:52 51°21.31 3°4.46 11.1 335 17.9 101470 63
2003-08-27 07:43:02 51°21.32 3°4.51 13.1 329 17.9 101470 63
2003-08-27 07:43:06 51°21.32 3°4.53 12 330 17.9 101470 63
2003-08-27 07:43:14 51°21.33 3°4.57 12.1 328 17.9 101480 61
2003-08-27 07:43:18 51°21.34 3°4.59 12 332 17.9 101480 61
2003-08-27 07:43:22 51°21.34 3°4.61 11.4 335 17.9 101480 61
2003-08-27 07:43:26 51°21.35 3°4.63 12.4 333 17.9 101480 61
2003-08-27 07:43:30 51°21.35 3°4.65 12.4 328 17.9 101470 61
2003-08-27 07:43:42 51°21.36 3°4.71 13 330 17.9 101490 61
2003-08-27 07:43:46 51°21.37 3°4.73 12.1 327 17.9 101490 61
2003-08-27 07:43:52 51°21.38 3°4.75 12.8 328 17.9 101480 61
2003-08-27 07:43:58 51°21.38 3°4.78 11.7 325 17.9 101480 61
2003-08-27 07:44:02 51°21.39 3°4.8 12.1 324 17.9 101480 61
2003-08-27 07:44:06 51°21.39 3°4.82 11.1 326 17.9 101480 61
2003-08-27 07:44:10 51°21.4 3°4.84 11.3 329 17.9 101470 62
2003-08-27 07:44:14 51°21.4 3°4.86 12.1 322 17.9 101470 62
2003-08-27 07:44:22 51°21.41 3°4.9 12.3 322 17.9 101470 61
2003-08-27 07:44:30 51°21.42 3°4.94 11.1 322 17.9 101480 61
2003-08-27 07:44:36 51°21.43 3°4.97 10.8 325 17.9 101480 61
2003-08-27 07:44:40 51°21.43 3°4.99 12.1 325 17.9 101480 61
2003-08-27 07:44:46 51°21.44 3°5.02 11.5 325 17.9 101480 61
2003-08-27 07:44:50 51°21.44 3°5.04 11.7 329 17.9 101480 62
2003-08-27 07:44:54 51°21.45 3°5.06 11.7 325 17.9 101480 62
2003-08-27 07:45:00 51°21.45 3°5.09 11.9 327 17.9 101490 61
2003-08-27 07:45:06 51°21.46 3°5.11 12.4 324 17.9 101490 61
2003-08-27 07:45:14 51°21.47 3°5.15 13.1 323 17.9 101480 61
2003-08-27 07:45:18 51°21.47 3°5.17 11.8 324 17.9 101480 62
2003-08-27 07:45:22 51°21.48 3°5.19 13.3 326 17.9 101480 62
2003-08-27 07:45:30 51°21.49 3°5.23 12.6 326 18 101480 62
2003-08-27 07:45:34 51°21.49 3°5.25 14 324 18 101480 62
2003-08-27 07:45:38 51°21.5 3°5.27 13.3 324 17.9 101480 60
2003-08-27 07:45:54 51°21.52 3°5.35 13.5 320 17.9 101480 60
2003-08-27 07:45:58 51°21.52 3°5.37 11.9 319 17.9 101470 60
2003-08-27 07:46:04 51°21.52 3°5.4 12.4 226 17.9 101470 60
2003-08-27 07:46:10 51°21.53 3°5.43 12.2 333 17.9 101470 60
2003-08-27 07:46:12 51°21.53 3°5.44 13.3 322 17.9 101470 60
2003-08-27 07:46:26 51°21.54 3°5.51 11.6 318 17.9 101470 60
2003-08-27 07:46:34 51°21.55 3°5.55 12.1 324 17.9 101480 61
2003-08-27 07:46:40 51°21.55 3°5.58 11.3 326 17.9 101470 60
2003-08-27 07:46:44 51°21.56 3°5.6 12.1 323 17.9 101470 60
2003-08-27 07:46:54 51°21.57 3°5.65 11.6 42 17.9 101470 60
2003-08-27 07:47:00 51°21.57 3°5.68 11.3 316 17.9 101470 60
2003-08-27 07:47:06 51°21.58 3°5.71 10.7 322 17.9 101470 60
2003-08-27 07:47:10 51°21.58 3°5.73 10 323 17.9 101470 60
2003-08-27 07:47:14 51°21.58 3°5.75 12.3 324 17.9 101470 60
2003-08-27 07:47:26 51°21.59 3°5.82 12 318 18 101470 60
2003-08-27 07:47:32 51°21.6 3°5.85 11.7 317 18 101470 61
2003-08-27 07:47:44 51°21.61 3°5.91 10.6 321 18 101470 61
2003-08-27 07:47:46 51°21.61 3°5.92 12.1 320 18 101470 61
2003-08-27 07:47:54 51°21.62 3°5.96 11.5 318 18 101460 61
2003-08-27 07:47:58 51°21.62 3°5.98 11.5 322 18 101460 61
2003-08-27 07:48:06 51°21.63 3°6.02 13.6 319 18 101480 61
2003-08-27 07:48:10 51°21.63 3°6.04 13.1 324 18 101480 62
2003-08-27 07:48:22 51°21.64 3°6.1 11.1 319 18 101480 62
2003-08-27 07:48:28 51°21.65 3°6.13 11.6 321 18 101480 62
2003-08-27 07:48:34 51°21.65 3°6.16 13.1 318 18 101480 61
2003-08-27 07:48:38 51°21.66 3°6.18 13 317 18 101480 61
2003-08-27 07:48:42 51°21.66 3°6.21 11.6 315 18 101470 61
2003-08-27 07:48:48 51°21.66 3°6.24 11.6 316 18 101480 61
2003-08-27 07:48:50 51°21.67 3°6.25 12.1 318 18 101480 61
2003-08-27 07:49:02 51°21.68 3°6.31 12.8 316 17.9 101470 60
2003-08-27 07:49:06 51°21.68 3°6.33 11.2 319 17.9 101470 60
2003-08-27 07:49:10 51°21.68 3°6.35 11.3 320 17.9 101480 60
2003-08-27 07:49:14 51°21.69 3°6.37 10.5 321 17.9 101480 60
2003-08-27 07:49:22 51°21.7 3°6.41 12 44 18 101480 62